(2017 US) |
Classification: Aten [NEO] SPK-ID: 3787068 |
[ hide orbit diagram ]
For accurate long-term ephemerides, please instead use our Horizons system.This orbit viewer was implemented using two-body methods, and hence should not be used for determining accurate long-term trajectories (over several years or decades) or planetary encounter circumstances.
Orbital Elements at Epoch 2459000.5 (2020-May-31.0) TDB
Reference: JPL 13 (heliocentric ecliptic J2000)
Element | Value | Uncertainty (1-sigma) | Units |
e | .2294663702138317 | 5.5901e-08 | |
a | .8295502523839244 | 1.1912e-08 | au |
q | .6391963670594173 | 5.4718e-08 | au |
i | .9063755305482787 | 6.5436e-06 | deg |
node | 200.0501965354722 | 5.7402e-05 | deg |
peri | 357.1817985940366 | 4.1594e-05 | deg |
M | 359.0517105543522 | 6.0469e-05 | deg |
tp | 2459001.226943893503 (2020-May-31.72694389) | 4.637e-05 | TDB |
period | 275.9703831589939 0.76 | 5.9443e-06 1.627e-08 | d yr |
n | 1.304487807275299 | 2.8098e-08 | deg/d |
Q | 1.019904137708432 | 1.4646e-08 | au |
|
| | Orbit Determination Parameters
Additional Information
|
[ show covariance matrix ]
[ show close-approach data ]
|